Time,TemperatureF,DewpointF,PressureIn,WindDirection,WindDirectionDegrees,WindSpeedMPH,WindSpeedGustMPH,Humidity,HourlyPrecipIn,Conditions,Clouds,dailyrainin,SoftwareType,DateUTC
2013-08-03 00:01:00,71.4,67.3,29.89,WNW,286,0.0,3.0,87,0.00,,,0.00,LWC V2.10 B1702,2013-08-03 04:01:00,
2013-08-03 00:06:00,71.4,67.3,29.89,West,280,0.0,6.0,87,0.00,,,0.00,LWC V2.10 B1702,2013-08-03 04:06:00,
2013-08-03 00:11:00,71.4,67.7,29.89,WNW,292,0.0,3.0,88,0.00,,,0.00,LWC V2.10 B1702,2013-08-03 04:11:00,
2013-08-03 00:16:00,71.3,67.6,29.89,West,269,0.0,3.0,88,0.00,,,0.00,LWC V2.10 B1702,2013-08-03 04:16:00,
2013-08-03 00:21:00,71.3,67.6,29.89,WNW,286,1.0,4.0,88,0.00,,,0.00,LWC V2.10 B1702,2013-08-03 04:21:00,
2013-08-03 00:26:00,71.3,67.6,29.89,WNW,301,0.0,4.0,88,0.00,,,0.00,LWC V2.10 B1702,2013-08-03 04:26:00,
2013-08-03 00:31:00,71.3,67.6,29.89,NW,304,0.0,3.0,88,0.00,,,0.00,LWC V2.10 B1702,2013-08-03 04:31:00,
2013-08-03 00:36:00,71.3,67.6,29.89,WNW,288,0.0,4.0,88,0.00,,,0.00,LWC V2.10 B1702,2013-08-03 04:36:00,
2013-08-03 00:41:00,71.3,67.6,29.89,West,271,0.0,3.0,88,0.00,,,0.00,LWC V2.10 B1702,2013-08-03 04:41:00,
2013-08-03 00:46:00,71.2,67.5,29.89,NW,315,0.0,5.0,88,0.00,,,0.00,LWC V2.10 B1702,2013-08-03 04:46:00,
2013-08-03 00:51:00,71.2,67.8,29.89,WNW,288,1.0,2.0,89,0.00,,,0.00,LWC V2.10 B1702,2013-08-03 04:51:00,
2013-08-03 00:56:00,71.2,67.8,29.89,WSW,245,0.0,5.0,89,0.00,,,0.00,LWC V2.10 B1702,2013-08-03 04:56:00,
2013-08-03 01:01:00,71.2,67.8,29.89,NNW,334,1.0,2.0,89,0.00,,,0.00,LWC V2.10 B1702,2013-08-03 05:01:00,
2013-08-03 01:06:00,71.1,67.7,29.88,West,259,1.0,2.0,89,0.00,,,0.00,LWC V2.10 B1702,2013-08-03 05:06:00,
2013-08-03 01:11:00,71.1,67.7,29.88,NW,318,4.0,4.0,89,0.00,,,0.00,LWC V2.10 B1702,2013-08-03 05:11:00,
2013-08-03 01:16:00,71.1,67.7,29.88,WSW,254,1.0,3.0,89,0.00,,,0.00,LWC V2.10 B1702,2013-08-03 05:16:00,
2013-08-03 01:21:00,71.1,67.7,29.88,West,271,0.0,3.0,89,0.00,,,0.00,LWC V2.10 B1702,2013-08-03 05:21:00,
2013-08-03 01:26:00,71.1,67.7,29.88,West,268,1.0,4.0,89,0.00,,,0.00,LWC V2.10 B1702,2013-08-03 05:26:00,
2013-08-03 01:31:00,71.2,68.1,29.88,WSW,239,2.0,5.0,90,0.00,,,0.00,LWC V2.10 B1702,2013-08-03 05:31:00,
2013-08-03 01:36:00,71.2,68.1,29.87,NNW,337,0.0,1.0,90,0.00,,,0.00,LWC V2.10 B1702,2013-08-03 05:36:00,
2013-08-03 01:41:00,71.3,68.2,29.87,WSW,246,0.0,0.0,90,0.00,,,0.00,LWC V2.10 B1702,2013-08-03 05:41:00,
2013-08-03 01:46:00,71.3,68.2,29.87,North,355,1.0,2.0,90,0.00,,,0.00,LWC V2.10 B1702,2013-08-03 05:46:00,
2013-08-03 01:51:00,71.3,68.2,29.87,West,275,2.0,7.0,90,0.00,,,0.00,LWC V2.10 B1702,2013-08-03 05:51:00,
2013-08-03 01:56:00,71.3,68.2,29.87,NW,323,0.0,1.0,90,0.00,,,0.00,LWC V2.10 B1702,2013-08-03 05:56:00,
2013-08-03 02:01:00,71.3,68.2,29.86,WSW,250,2.0,4.0,90,0.00,,,0.00,LWC V2.10 B1702,2013-08-03 06:01:00,
2013-08-03 02:06:00,71.4,68.3,29.86,NW,307,0.0,4.0,90,0.00,,,0.00,LWC V2.10 B1702,2013-08-03 06:06:00,
2013-08-03 02:11:00,71.4,68.3,29.85,West,269,0.0,2.0,90,0.00,,,0.00,LWC V2.10 B1702,2013-08-03 06:11:00,
2013-08-03 02:16:00,71.4,68.3,29.85,NW,309,1.0,1.0,90,0.00,,,0.00,LWC V2.10 B1702,2013-08-03 06:16:00,
2013-08-03 02:21:00,71.3,67.9,29.85,West,268,1.0,1.0,89,0.00,,,0.00,LWC V2.10 B1702,2013-08-03 06:21:00,
2013-08-03 02:26:00,71.3,67.9,29.85,WNW,288,0.0,1.0,89,0.00,,,0.00,LWC V2.10 B1702,2013-08-03 06:26:00,
2013-08-03 02:31:00,71.2,67.8,29.85,West,281,0.0,0.0,89,0.00,,,0.00,LWC V2.10 B1702,2013-08-03 06:31:00,
2013-08-03 02:36:00,71.2,67.8,29.85,NW,311,1.0,1.0,89,0.00,,,0.00,LWC V2.10 B1702,2013-08-03 06:36:00,
2013-08-03 02:41:00,71.1,67.7,29.85,NNW,334,0.0,1.0,89,0.00,,,0.00,LWC V2.10 B1702,2013-08-03 06:41:00,
2013-08-03 02:46:00,71.0,67.3,29.85,WNW,301,0.0,1.0,88,0.00,,,0.00,LWC V2.10 B1702,2013-08-03 06:46:00,
2013-08-03 02:51:00,70.9,67.2,29.85,NW,317,2.0,2.0,88,0.00,,,0.00,LWC V2.10 B1702,2013-08-03 06:51:00,
2013-08-03 02:56:00,70.8,66.7,29.84,West,271,0.0,1.0,87,0.00,,,0.00,LWC V2.10 B1702,2013-08-03 06:56:00,
2013-08-03 03:01:00,70.7,66.3,29.84,WNW,294,0.0,1.0,86,0.00,,,0.00,LWC V2.10 B1702,2013-08-03 07:01:00,
2013-08-03 03:06:00,70.7,66.3,29.84,WNW,288,0.0,2.0,86,0.00,,,0.00,LWC V2.10 B1702,2013-08-03 07:06:00,
2013-08-03 03:11:00,70.7,66.0,29.84,NW,317,1.0,1.0,85,0.00,,,0.00,LWC V2.10 B1702,2013-08-03 07:11:00,
2013-08-03 03:16:00,70.7,66.0,29.84,NNW,335,0.0,2.0,85,0.00,,,0.00,LWC V2.10 B1702,2013-08-03 07:16:00,
2013-08-03 03:21:00,70.8,66.1,29.84,NW,315,0.0,1.0,85,0.00,,,0.00,LWC V2.10 B1702,2013-08-03 07:21:00,
2013-08-03 03:26:00,70.8,66.1,29.83,WNW,292,0.0,0.0,85,0.00,,,0.00,LWC V2.10 B1702,2013-08-03 07:26:00,
2013-08-03 03:31:00,70.8,66.1,29.83,NNW,330,0.0,1.0,85,0.00,,,0.00,LWC V2.10 B1702,2013-08-03 07:31:00,
2013-08-03 03:36:00,70.8,66.1,29.83,West,269,0.0,1.0,85,0.00,,,0.00,LWC V2.10 B1702,2013-08-03 07:36:00,
2013-08-03 03:41:00,70.9,66.5,29.83,SSW,210,0.0,0.0,86,0.00,,,0.00,LWC V2.10 B1702,2013-08-03 07:41:00,
2013-08-03 03:46:00,71.0,66.9,29.83,WNW,291,1.0,3.0,87,0.00,,,0.00,LWC V2.10 B1702,2013-08-03 07:46:00,
2013-08-03 03:51:00,71.1,67.0,29.83,NW,313,0.0,1.0,87,0.00,,,0.00,LWC V2.10 B1702,2013-08-03 07:51:00,
2013-08-03 03:56:00,71.0,66.9,29.83,WNW,292,0.0,1.0,87,0.00,,,0.00,LWC V2.10 B1702,2013-08-03 07:56:00,
2013-08-03 04:01:00,71.0,67.3,29.83,West,266,0.0,4.0,88,0.00,,,0.00,LWC V2.10 B1702,2013-08-03 08:01:00,
2013-08-03 04:06:00,71.0,67.3,29.83,WNW,298,2.0,2.0,88,0.00,,,0.00,LWC V2.10 B1702,2013-08-03 08:06:00,
2013-08-03 04:11:00,71.0,67.3,29.82,WNW,302,0.0,1.0,88,0.00,,,0.00,LWC V2.10 B1702,2013-08-03 08:11:00,
2013-08-03 04:16:00,70.9,67.2,29.83,WNW,290,0.0,1.0,88,0.00,,,0.00,LWC V2.10 B1702,2013-08-03 08:16:00,
2013-08-03 04:21:00,70.9,67.2,29.83,SSW,207,0.0,2.0,88,0.00,,,0.00,LWC V2.10 B1702,2013-08-03 08:21:00,
2013-08-03 04:26:00,70.9,67.2,29.83,NW,304,0.0,1.0,88,0.00,,,0.00,LWC V2.10 B1702,2013-08-03 08:26:00,
2013-08-03 04:31:00,70.8,67.1,29.83,West,271,0.0,3.0,88,0.00,,,0.00,LWC V2.10 B1702,2013-08-03 08:31:00,
2013-08-03 04:36:00,70.8,67.4,29.84,West,273,0.0,1.0,89,0.00,,,0.00,LWC V2.10 B1702,2013-08-03 08:36:00,
2013-08-03 04:41:00,70.7,67.3,29.84,WNW,303,0.0,4.0,89,0.00,,,0.00,LWC V2.10 B1702,2013-08-03 08:41:00,
2013-08-03 04:46:00,70.7,67.3,29.84,WSW,255,0.0,0.0,89,0.00,,,0.00,LWC V2.10 B1702,2013-08-03 08:46:00,
2013-08-03 04:51:00,70.7,67.3,29.84,WSW,243,0.0,2.0,89,0.00,,,0.00,LWC V2.10 B1702,2013-08-03 08:51:00,
2013-08-03 04:56:00,70.7,67.3,29.84,SSW,203,0.0,1.0,89,0.00,,,0.00,LWC V2.10 B1702,2013-08-03 08:56:00,
2013-08-03 05:01:00,70.6,67.2,29.84,NW,323,0.0,1.0,89,0.00,,,0.00,LWC V2.10 B1702,2013-08-03 09:01:00,
2013-08-03 05:06:00,70.6,67.2,29.84,West,259,0.0,4.0,89,0.00,,,0.00,LWC V2.10 B1702,2013-08-03 09:06:00,
2013-08-03 05:11:00,70.6,67.2,29.84,WSW,248,0.0,1.0,89,0.00,,,0.00,LWC V2.10 B1702,2013-08-03 09:11:00,
2013-08-03 05:16:00,70.6,67.5,29.84,NW,306,0.0,2.0,90,0.00,,,0.00,LWC V2.10 B1702,2013-08-03 09:16:00,
2013-08-03 05:21:00,70.7,67.6,29.84,NW,319,2.0,2.0,90,0.00,,,0.00,LWC V2.10 B1702,2013-08-03 09:21:00,
2013-08-03 05:26:00,70.7,67.6,29.84,SW,232,1.0,2.0,90,0.00,,,0.00,LWC V2.10 B1702,2013-08-03 09:26:00,
2013-08-03 05:31:00,70.6,67.5,29.85,NW,320,1.0,2.0,90,0.00,,,0.00,LWC V2.10 B1702,2013-08-03 09:31:00,
2013-08-03 05:36:00,70.6,67.5,29.85,West,261,2.0,3.0,90,0.00,,,0.00,LWC V2.10 B1702,2013-08-03 09:36:00,
2013-08-03 05:41:00,70.6,67.5,29.85,WNW,302,0.0,1.0,90,0.00,,,0.00,LWC V2.10 B1702,2013-08-03 09:41:00,
2013-08-03 05:46:00,70.6,67.2,29.85,West,271,0.0,1.0,89,0.00,,,0.00,LWC V2.10 B1702,2013-08-03 09:46:00,
2013-08-03 05:51:00,70.6,67.2,29.85,NW,311,1.0,2.0,89,0.00,,,0.00,LWC V2.10 B1702,2013-08-03 09:51:00,
2013-08-03 05:56:00,70.7,67.3,29.85,WNW,283,0.0,2.0,89,0.00,,,0.00,LWC V2.10 B1702,2013-08-03 09:56:00,
2013-08-03 06:01:00,70.7,67.3,29.85,North,355,0.0,1.0,89,0.00,,,0.00,LWC V2.10 B1702,2013-08-03 10:01:00,
2013-08-03 06:06:00,70.8,67.4,29.85,ENE,71,0.0,0.0,89,0.00,,,0.00,LWC V2.10 B1702,2013-08-03 10:06:00,
2013-08-03 06:11:00,70.8,67.4,29.85,West,273,0.0,2.0,89,0.00,,,0.00,LWC V2.10 B1702,2013-08-03 10:11:00,
2013-08-03 06:16:00,70.9,67.5,29.85,SW,229,0.0,3.0,89,0.00,,,0.00,LWC V2.10 B1702,2013-08-03 10:16:00,
2013-08-03 06:21:00,71.0,67.6,29.86,North,0,2.0,4.0,89,0.00,,,0.00,LWC V2.10 B1702,2013-08-03 10:21:00,
2013-08-03 06:26:00,71.1,67.7,29.85,North,355,1.0,3.0,89,0.00,,,0.00,LWC V2.10 B1702,2013-08-03 10:26:00,
2013-08-03 06:31:00,71.2,67.8,29.85,NW,320,0.0,2.0,89,0.00,,,0.00,LWC V2.10 B1702,2013-08-03 10:31:00,
2013-08-03 06:36:00,71.3,67.9,29.86,WNW,282,1.0,4.0,89,0.00,,,0.00,LWC V2.10 B1702,2013-08-03 10:36:00,
2013-08-03 06:41:00,71.3,67.9,29.86,SSW,205,2.0,4.0,89,0.00,,,0.00,LWC V2.10 B1702,2013-08-03 10:41:00,
2013-08-03 06:46:00,71.3,67.9,29.86,WSW,258,0.0,4.0,89,0.00,,,0.00,LWC V2.10 B1702,2013-08-03 10:46:00,
2013-08-03 06:51:00,71.3,67.9,29.85,SW,221,0.0,2.0,89,0.00,,,0.00,LWC V2.10 B1702,2013-08-03 10:51:00,
2013-08-03 06:56:00,71.3,67.6,29.85,West,279,0.0,3.0,88,0.00,,,0.00,LWC V2.10 B1702,2013-08-03 10:56:00,
2013-08-03 07:01:00,71.4,67.7,29.85,WNW,291,1.0,3.0,88,0.00,,,0.00,LWC V2.10 B1702,2013-08-03 11:01:00,
2013-08-03 07:06:00,71.6,67.5,29.85,NW,304,1.0,3.0,87,0.00,,,0.00,LWC V2.10 B1702,2013-08-03 11:06:00,
2013-08-03 07:11:00,71.6,67.5,29.85,SSW,195,1.0,6.0,87,0.00,,,0.00,LWC V2.10 B1702,2013-08-03 11:11:00,
2013-08-03 07:16:00,71.7,67.3,29.84,NW,316,4.0,5.0,86,0.00,,,0.00,LWC V2.10 B1702,2013-08-03 11:16:00,
2013-08-03 07:21:00,71.7,67.3,29.84,WSW,242,0.0,2.0,86,0.00,,,0.00,LWC V2.10 B1702,2013-08-03 11:21:00,
2013-08-03 07:26:00,71.7,67.3,29.84,WSW,254,2.0,3.0,86,0.00,,,0.00,LWC V2.10 B1702,2013-08-03 11:26:00,
2013-08-03 07:31:00,71.6,67.2,29.84,WSW,256,0.0,4.0,86,0.00,,,0.00,LWC V2.10 B1702,2013-08-03 11:31:00,
2013-08-03 07:36:00,71.6,67.2,29.84,West,260,1.0,9.0,86,0.00,,,0.00,LWC V2.10 B1702,2013-08-03 11:36:00,
2013-08-03 07:41:00,71.6,67.2,29.85,WSW,256,1.0,5.0,86,0.00,,,0.00,LWC V2.10 B1702,2013-08-03 11:41:00,
2013-08-03 07:46:00,71.5,67.1,29.84,WNW,298,0.0,6.0,86,0.00,,,0.00,LWC V2.10 B1702,2013-08-03 11:46:00,
2013-08-03 07:51:00,71.5,67.1,29.85,SW,234,4.0,4.0,86,0.00,,,0.00,LWC V2.10 B1702,2013-08-03 11:51:00,
2013-08-03 07:56:00,71.6,67.2,29.85,WNW,292,0.0,4.0,86,0.00,,,0.00,LWC V2.10 B1702,2013-08-03 11:56:00,
2013-08-03 08:01:00,71.7,67.3,29.85,WSW,244,0.0,5.0,86,0.00,,,0.00,LWC V2.10 B1702,2013-08-03 12:01:00,
2013-08-03 08:06:00,71.7,67.3,29.85,North,5,1.0,4.0,86,0.00,,,0.00,LWC V2.10 B1702,2013-08-03 12:06:00,
2013-08-03 08:11:00,71.7,66.9,29.84,WNW,303,1.0,4.0,85,0.00,,,0.00,LWC V2.10 B1702,2013-08-03 12:11:00,
2013-08-03 08:16:00,71.7,66.6,29.84,West,278,1.0,5.0,84,0.00,,,0.00,LWC V2.10 B1702,2013-08-03 12:16:00,
2013-08-03 08:21:00,71.7,66.6,29.85,West,271,0.0,3.0,84,0.00,,,0.00,LWC V2.10 B1702,2013-08-03 12:21:00,
2013-08-03 08:26:00,71.6,66.5,29.85,West,270,4.0,6.0,84,0.00,,,0.00,LWC V2.10 B1702,2013-08-03 12:26:00,
2013-08-03 08:31:00,71.7,66.6,29.85,WNW,293,1.0,2.0,84,0.00,,,0.00,LWC V2.10 B1702,2013-08-03 12:31:00,
2013-08-03 08:36:00,71.7,66.2,29.85,WSW,254,3.0,10.0,83,0.00,,,0.00,LWC V2.10 B1702,2013-08-03 12:36:00,
2013-08-03 08:41:00,71.7,66.2,29.85,WNW,283,1.0,5.0,83,0.00,,,0.00,LWC V2.10 B1702,2013-08-03 12:41:00,
2013-08-03 08:46:00,71.8,66.3,29.85,West,268,2.0,4.0,83,0.00,,,0.00,LWC V2.10 B1702,2013-08-03 12:46:00,
2013-08-03 08:51:00,71.9,66.4,29.85,West,275,2.0,4.0,83,0.00,,,0.00,LWC V2.10 B1702,2013-08-03 12:51:00,
2013-08-03 08:56:00,71.9,66.1,29.86,North,351,3.0,5.0,82,0.00,,,0.00,LWC V2.10 B1702,2013-08-03 12:56:00,
2013-08-03 09:01:00,72.2,66.4,29.85,West,268,3.0,3.0,82,0.00,,,0.00,LWC V2.10 B1702,2013-08-03 13:01:00,
2013-08-03 09:06:00,72.5,66.0,29.86,West,269,2.0,5.0,80,0.00,,,0.00,LWC V2.10 B1702,2013-08-03 13:06:00,
2013-08-03 09:11:00,72.9,66.7,29.85,WSW,238,1.0,7.0,81,0.00,,,0.00,LWC V2.10 B1702,2013-08-03 13:11:00,
2013-08-03 09:16:00,73.0,66.5,29.86,WNW,302,4.0,8.0,80,0.00,,,0.00,LWC V2.10 B1702,2013-08-03 13:16:00,
2013-08-03 09:21:00,72.8,66.3,29.86,WSW,244,3.0,4.0,80,0.00,,,0.00,LWC V2.10 B1702,2013-08-03 13:21:00,
2013-08-03 09:26:00,72.5,66.0,29.86,WSW,251,5.0,5.0,80,0.00,,,0.00,LWC V2.10 B1702,2013-08-03 13:26:00,
2013-08-03 09:31:00,72.4,66.2,29.86,NW,311,1.0,6.0,81,0.00,,,0.00,LWC V2.10 B1702,2013-08-03 13:31:00,
2013-08-03 09:36:00,72.4,66.6,29.86,SW,218,0.0,3.0,82,0.00,,,0.00,LWC V2.10 B1702,2013-08-03 13:36:00,
2013-08-03 09:41:00,72.4,66.9,29.86,WNW,287,0.0,1.0,83,0.00,,,0.00,LWC V2.10 B1702,2013-08-03 13:41:00,
2013-08-03 09:46:00,72.3,66.5,29.86,WNW,297,3.0,6.0,82,0.00,,,0.00,LWC V2.10 B1702,2013-08-03 13:46:00,
2013-08-03 09:51:00,72.1,66.3,29.86,WNW,292,1.0,9.0,82,0.00,,,0.00,LWC V2.10 B1702,2013-08-03 13:51:00,
2013-08-03 09:56:00,71.9,66.1,29.86,NW,321,1.0,6.0,82,0.00,,,0.00,LWC V2.10 B1702,2013-08-03 13:56:00,
2013-08-03 10:01:00,71.7,65.9,29.86,NW,317,4.0,10.0,82,0.00,,,0.00,LWC V2.10 B1702,2013-08-03 14:01:00,
2013-08-03 10:06:00,71.6,65.8,29.86,WNW,286,3.0,4.0,82,0.00,,,0.00,LWC V2.10 B1702,2013-08-03 14:06:00,
2013-08-03 10:11:00,71.6,65.8,29.86,WSW,246,3.0,4.0,82,0.00,,,0.00,LWC V2.10 B1702,2013-08-03 14:11:00,
2013-08-03 10:16:00,71.6,66.2,29.86,West,268,0.0,4.0,83,0.00,,,0.00,LWC V2.10 B1702,2013-08-03 14:16:00,
2013-08-03 10:21:00,71.7,66.2,29.86,SW,236,1.0,6.0,83,0.00,,,0.00,LWC V2.10 B1702,2013-08-03 14:21:00,
2013-08-03 10:26:00,71.6,66.2,29.85,West,275,2.0,4.0,83,0.00,,,0.00,LWC V2.10 B1702,2013-08-03 14:26:00,
2013-08-03 10:31:00,71.6,66.5,29.85,NW,315,0.0,5.0,84,0.00,,,0.00,LWC V2.10 B1702,2013-08-03 14:31:00,
2013-08-03 10:36:00,71.7,66.6,29.85,North,5,1.0,6.0,84,0.00,,,0.00,LWC V2.10 B1702,2013-08-03 14:36:00,
2013-08-03 10:41:00,71.9,66.4,29.85,WNW,299,1.0,3.0,83,0.00,,,0.00,LWC V2.10 B1702,2013-08-03 14:41:00,
2013-08-03 10:46:00,72.0,66.9,29.85,SW,229,1.0,5.0,84,0.00,,,0.00,LWC V2.10 B1702,2013-08-03 14:46:00,
2013-08-03 10:51:00,71.9,66.8,29.86,NNE,19,1.0,7.0,84,0.00,,,0.00,LWC V2.10 B1702,2013-08-03 14:51:00,
2013-08-03 10:56:00,71.8,66.7,29.86,WNW,303,3.0,3.0,84,0.00,,,0.00,LWC V2.10 B1702,2013-08-03 14:56:00,
2013-08-03 11:01:00,71.8,66.7,29.86,WNW,282,1.0,10.0,84,0.00,,,0.00,LWC V2.10 B1702,2013-08-03 15:01:00,
2013-08-03 11:06:00,71.8,67.0,29.86,West,281,3.0,5.0,85,0.00,,,0.00,LWC V2.10 B1702,2013-08-03 15:06:00,
2013-08-03 11:11:00,71.8,66.7,29.86,WSW,252,3.0,8.0,84,0.00,,,0.00,LWC V2.10 B1702,2013-08-03 15:11:00,
2013-08-03 11:16:00,71.7,66.6,29.86,NW,314,3.0,3.0,84,0.00,,,0.00,LWC V2.10 B1702,2013-08-03 15:16:00,
2013-08-03 11:21:00,71.6,66.5,29.86,WNW,303,0.0,6.0,84,0.00,,,0.00,LWC V2.10 B1702,2013-08-03 15:21:00,
2013-08-03 11:26:00,71.5,66.4,29.86,West,279,3.0,3.0,84,0.00,,,0.00,LWC V2.10 B1702,2013-08-03 15:26:00,
2013-08-03 11:31:00,71.4,66.3,29.86,WNW,286,0.0,3.0,84,0.00,,,0.00,LWC V2.10 B1702,2013-08-03 15:31:00,
2013-08-03 11:36:00,71.4,66.6,29.86,NW,321,1.0,6.0,85,0.00,,,0.00,LWC V2.10 B1702,2013-08-03 15:36:00,
2013-08-03 11:41:00,71.5,66.7,29.86,NW,315,4.0,4.0,85,0.00,,,0.00,LWC V2.10 B1702,2013-08-03 15:41:00,
2013-08-03 11:46:00,71.5,66.7,29.86,WSW,252,1.0,7.0,85,0.00,,,0.00,LWC V2.10 B1702,2013-08-03 15:46:00,
2013-08-03 11:51:00,71.5,66.7,29.86,NNE,17,2.0,2.0,85,0.00,,,0.00,LWC V2.10 B1702,2013-08-03 15:51:00,
2013-08-03 11:56:00,71.4,66.6,29.86,NW,323,1.0,2.0,85,0.00,,,0.00,LWC V2.10 B1702,2013-08-03 15:56:00,
2013-08-03 12:01:00,71.3,66.5,29.85,North,349,4.0,4.0,85,0.00,,,0.00,LWC V2.10 B1702,2013-08-03 16:01:00,
2013-08-03 12:06:00,71.3,66.5,29.85,SW,214,1.0,5.0,85,0.00,,,0.00,LWC V2.10 B1702,2013-08-03 16:06:00,
2013-08-03 12:11:00,71.3,66.5,29.85,WNW,298,0.0,2.0,85,0.00,,,0.00,LWC V2.10 B1702,2013-08-03 16:11:00,
2013-08-03 12:20:00,71.2,66.4,29.85,West,272,1.0,3.0,85,0.00,,,0.00,LWC V2.10 B1702,2013-08-03 16:20:00,
2013-08-03 12:25:00,71.2,66.4,29.85,NNW,330,1.0,4.0,85,0.00,,,0.00,LWC V2.10 B1702,2013-08-03 16:25:00,
2013-08-03 12:30:00,71.1,66.7,29.85,SW,233,2.0,6.0,86,0.00,,,0.00,LWC V2.10 B1702,2013-08-03 16:30:00,
2013-08-03 12:35:00,71.0,66.6,29.85,West,278,2.0,5.0,86,0.00,,,0.00,LWC V2.10 B1702,2013-08-03 16:35:00,
2013-08-03 12:40:00,70.9,66.5,29.85,WNW,299,1.0,6.0,86,0.00,,,0.00,LWC V2.10 B1702,2013-08-03 16:40:00,
2013-08-03 12:50:00,70.7,66.6,29.85,WNW,288,1.0,6.0,87,0.00,,,0.00,LWC V2.10 B1702,2013-08-03 16:50:00,
2013-08-03 13:00:00,70.5,66.4,29.86,WNW,285,1.0,8.0,87,0.00,,,0.00,LWC V2.10 B1702,2013-08-03 17:00:00,
2013-08-03 13:12:00,70.3,66.2,29.86,West,259,1.0,4.0,87,0.00,,,0.00,LWC V2.10 B1702,2013-08-03 17:12:00,
2013-08-03 13:17:00,70.2,66.1,29.86,South,175,1.0,2.0,87,0.00,,,0.00,LWC V2.10 B1702,2013-08-03 17:17:00,
2013-08-03 13:22:00,70.1,66.0,29.85,West,272,1.0,4.0,87,0.00,,,0.00,LWC V2.10 B1702,2013-08-03 17:22:00,
2013-08-03 13:27:00,70.2,66.5,29.85,NNW,332,4.0,5.0,88,0.00,,,0.00,LWC V2.10 B1702,2013-08-03 17:27:00,
2013-08-03 13:32:00,70.2,66.5,29.86,West,281,1.0,2.0,88,0.00,,,0.00,LWC V2.10 B1702,2013-08-03 17:32:00,
2013-08-03 13:37:00,70.2,66.5,29.85,West,266,2.0,3.0,88,0.00,,,0.00,LWC V2.10 B1702,2013-08-03 17:37:00,
2013-08-03 13:42:00,70.2,66.5,29.85,WNW,297,1.0,3.0,88,0.00,,,0.01,LWC V2.10 B1702,2013-08-03 17:42:00,
2013-08-03 13:47:00,70.1,66.4,29.85,West,281,1.0,2.0,88,0.00,,,0.01,LWC V2.10 B1702,2013-08-03 17:47:00,
2013-08-03 13:52:00,70.0,66.6,29.85,WSW,245,0.0,4.0,89,0.00,,,0.01,LWC V2.10 B1702,2013-08-03 17:52:00,
2013-08-03 13:57:00,70.0,66.6,29.86,WSW,250,1.0,7.0,89,0.00,,,0.01,LWC V2.10 B1702,2013-08-03 17:57:00,
2013-08-03 14:02:00,69.9,66.5,29.85,West,271,0.0,3.0,89,0.00,,,0.01,LWC V2.10 B1702,2013-08-03 18:02:00,
2013-08-03 14:07:00,69.8,66.4,29.85,West,264,2.0,4.0,89,0.00,,,0.01,LWC V2.10 B1702,2013-08-03 18:07:00,
2013-08-03 14:12:00,69.8,66.4,29.85,West,269,1.0,2.0,89,0.00,,,0.01,LWC V2.10 B1702,2013-08-03 18:12:00,
2013-08-03 14:17:00,69.7,66.0,29.85,West,281,5.0,5.0,88,0.00,,,0.01,LWC V2.10 B1702,2013-08-03 18:17:00,
2013-08-03 14:22:00,69.7,66.0,29.85,WSW,246,0.0,4.0,88,0.00,,,0.01,LWC V2.10 B1702,2013-08-03 18:22:00,
2013-08-03 14:27:00,69.7,66.3,29.85,West,262,1.0,3.0,89,0.00,,,0.01,LWC V2.10 B1702,2013-08-03 18:27:00,
2013-08-03 14:32:00,69.7,66.0,29.85,SSW,210,1.0,5.0,88,0.00,,,0.01,LWC V2.10 B1702,2013-08-03 18:32:00,
2013-08-03 14:37:00,69.8,66.1,29.85,WNW,297,1.0,3.0,88,0.00,,,0.01,LWC V2.10 B1702,2013-08-03 18:37:00,
2013-08-03 14:42:00,69.9,66.2,29.85,NNE,22,0.0,3.0,88,0.00,,,0.01,LWC V2.10 B1702,2013-08-03 18:42:00,
2013-08-03 14:47:00,70.0,66.3,29.85,WNW,293,0.0,2.0,88,0.00,,,0.01,LWC V2.10 B1702,2013-08-03 18:47:00,
2013-08-03 14:52:00,70.1,66.4,29.85,NNW,340,0.0,1.0,88,0.00,,,0.01,LWC V2.10 B1702,2013-08-03 18:52:00,
2013-08-03 14:57:00,70.1,66.0,29.85,WSW,240,3.0,4.0,87,0.00,,,0.01,LWC V2.10 B1702,2013-08-03 18:57:00,
2013-08-03 15:02:00,70.1,66.0,29.84,West,263,2.0,3.0,87,0.00,,,0.01,LWC V2.10 B1702,2013-08-03 19:02:00,
2013-08-03 15:07:00,70.2,66.1,29.84,NNW,336,1.0,5.0,87,0.00,,,0.01,LWC V2.10 B1702,2013-08-03 19:07:00,
2013-08-03 15:12:00,70.3,66.2,29.84,WNW,288,4.0,4.0,87,0.00,,,0.01,LWC V2.10 B1702,2013-08-03 19:12:00,
2013-08-03 15:17:00,70.3,66.2,29.84,NW,324,5.0,5.0,87,0.00,,,0.01,LWC V2.10 B1702,2013-08-03 19:17:00,
2013-08-03 15:22:00,70.4,66.3,29.84,WSW,244,3.0,3.0,87,0.00,,,0.01,LWC V2.10 B1702,2013-08-03 19:22:00,
2013-08-03 15:27:00,70.6,66.2,29.83,SSW,209,3.0,5.0,86,0.00,,,0.01,LWC V2.10 B1702,2013-08-03 19:27:00,
2013-08-03 15:32:00,70.9,66.5,29.83,SSW,211,4.0,5.0,86,0.00,,,0.01,LWC V2.10 B1702,2013-08-03 19:32:00,
2013-08-03 15:37:00,71.2,66.8,29.83,West,275,1.0,3.0,86,0.00,,,0.01,LWC V2.10 B1702,2013-08-03 19:37:00,
2013-08-03 15:42:00,71.5,67.1,29.83,West,269,3.0,3.0,86,0.00,,,0.01,LWC V2.10 B1702,2013-08-03 19:42:00,
2013-08-03 15:47:00,72.1,67.7,29.83,NW,315,1.0,4.0,86,0.00,,,0.01,LWC V2.10 B1702,2013-08-03 19:47:00,
2013-08-03 15:52:00,72.5,67.7,29.83,WNW,297,2.0,4.0,85,0.00,,,0.01,LWC V2.10 B1702,2013-08-03 19:52:00,
2013-08-03 15:57:00,72.7,67.6,29.83,SW,223,3.0,9.0,84,0.00,,,0.01,LWC V2.10 B1702,2013-08-03 19:57:00,
2013-08-03 16:02:00,73.1,68.0,29.83,WNW,287,2.0,3.0,84,0.00,,,0.01,LWC V2.10 B1702,2013-08-03 20:02:00,
2013-08-03 16:07:00,73.4,67.9,29.83,NNW,336,4.0,4.0,83,0.00,,,0.01,LWC V2.10 B1702,2013-08-03 20:07:00,
2013-08-03 16:12:00,73.3,67.5,29.83,NE,48,1.0,3.0,82,0.00,,,0.01,LWC V2.10 B1702,2013-08-03 20:12:00,
2013-08-03 16:17:00,73.1,67.6,29.83,NNW,332,3.0,4.0,83,0.00,,,0.01,LWC V2.10 B1702,2013-08-03 20:17:00,
2013-08-03 16:22:00,72.9,67.4,29.83,NNW,338,3.0,3.0,83,0.00,,,0.01,LWC V2.10 B1702,2013-08-03 20:22:00,
2013-08-03 16:27:00,72.7,66.9,29.83,West,261,0.0,5.0,82,0.00,,,0.01,LWC V2.10 B1702,2013-08-03 20:27:00,
2013-08-03 16:32:00,72.5,66.7,29.83,WSW,248,2.0,4.0,82,0.00,,,0.01,LWC V2.10 B1702,2013-08-03 20:32:00,
2013-08-03 16:37:00,72.5,67.0,29.83,WNW,297,3.0,6.0,83,0.00,,,0.01,LWC V2.10 B1702,2013-08-03 20:37:00,
2013-08-03 16:42:00,72.7,67.2,29.83,WSW,248,6.0,6.0,83,0.00,,,0.01,LWC V2.10 B1702,2013-08-03 20:42:00,
2013-08-03 16:47:00,72.8,67.0,29.82,NW,307,5.0,5.0,82,0.00,,,0.01,LWC V2.10 B1702,2013-08-03 20:47:00,
2013-08-03 16:52:00,72.7,66.9,29.82,WSW,241,2.0,3.0,82,0.00,,,0.01,LWC V2.10 B1702,2013-08-03 20:52:00,
2013-08-03 16:57:00,72.4,66.6,29.82,NNW,331,3.0,5.0,82,0.00,,,0.01,LWC V2.10 B1702,2013-08-03 20:57:00,
2013-08-03 17:02:00,72.3,66.8,29.82,West,261,0.0,4.0,83,0.00,,,0.01,LWC V2.10 B1702,2013-08-03 21:02:00,
2013-08-03 17:07:00,72.3,66.8,29.82,South,175,2.0,6.0,83,0.00,,,0.01,LWC V2.10 B1702,2013-08-03 21:07:00,
2013-08-03 17:12:00,72.3,66.8,29.82,West,261,0.0,4.0,83,0.00,,,0.01,LWC V2.10 B1702,2013-08-03 21:12:00,
2013-08-03 17:17:00,72.3,66.8,29.82,NW,324,5.0,8.0,83,0.00,,,0.01,LWC V2.10 B1702,2013-08-03 21:17:00,
2013-08-03 17:22:00,72.4,67.3,29.82,NW,310,2.0,8.0,84,0.00,,,0.01,LWC V2.10 B1702,2013-08-03 21:22:00,
2013-08-03 17:27:00,72.5,67.0,29.81,West,269,1.0,3.0,83,0.00,,,0.01,LWC V2.10 B1702,2013-08-03 21:27:00,
2013-08-03 17:32:00,72.4,66.9,29.82,WNW,302,0.0,10.0,83,0.00,,,0.01,LWC V2.10 B1702,2013-08-03 21:32:00,
2013-08-03 17:37:00,72.3,67.2,29.81,West,266,0.0,3.0,84,0.00,,,0.01,LWC V2.10 B1702,2013-08-03 21:37:00,
2013-08-03 17:42:00,72.3,67.2,29.81,West,274,3.0,4.0,84,0.00,,,0.01,LWC V2.10 B1702,2013-08-03 21:42:00,
2013-08-03 17:47:00,72.3,67.2,29.81,ENE,67,1.0,3.0,84,0.00,,,0.01,LWC V2.10 B1702,2013-08-03 21:47:00,
2013-08-03 17:52:00,72.2,67.1,29.81,West,271,2.0,3.0,84,0.00,,,0.01,LWC V2.10 B1702,2013-08-03 21:52:00,
2013-08-03 17:57:00,72.2,67.4,29.81,West,265,1.0,3.0,85,0.00,,,0.01,LWC V2.10 B1702,2013-08-03 21:57:00,
2013-08-03 18:02:00,72.2,67.1,29.81,WNW,291,0.0,5.0,84,0.00,,,0.01,LWC V2.10 B1702,2013-08-03 22:02:00,
2013-08-03 18:07:00,72.3,67.5,29.81,West,266,2.0,3.0,85,0.00,,,0.01,LWC V2.10 B1702,2013-08-03 22:07:00,
2013-08-03 18:12:00,72.3,67.5,29.80,NW,317,0.0,6.0,85,0.00,,,0.01,LWC V2.10 B1702,2013-08-03 22:12:00,
2013-08-03 18:17:00,72.3,67.2,29.81,WSW,241,2.0,5.0,84,0.00,,,0.01,LWC V2.10 B1702,2013-08-03 22:17:00,
2013-08-03 18:22:00,72.3,67.2,29.81,West,263,3.0,5.0,84,0.00,,,0.01,LWC V2.10 B1702,2013-08-03 22:22:00,
2013-08-03 18:27:00,72.1,66.6,29.81,WSW,246,3.0,4.0,83,0.00,,,0.01,LWC V2.10 B1702,2013-08-03 22:27:00,
2013-08-03 18:32:00,71.9,66.4,29.81,WSW,258,0.0,7.0,83,0.00,,,0.01,LWC V2.10 B1702,2013-08-03 22:32:00,
2013-08-03 18:37:00,71.7,66.6,29.81,West,259,1.0,6.0,84,0.00,,,0.01,LWC V2.10 B1702,2013-08-03 22:37:00,
2013-08-03 18:42:00,71.5,66.4,29.81,West,275,0.0,4.0,84,0.00,,,0.01,LWC V2.10 B1702,2013-08-03 22:42:00,
2013-08-03 18:47:00,71.4,66.3,29.81,WSW,242,2.0,4.0,84,0.00,,,0.01,LWC V2.10 B1702,2013-08-03 22:47:00,
2013-08-03 18:52:00,71.3,66.2,29.81,South,171,0.0,2.0,84,0.00,,,0.01,LWC V2.10 B1702,2013-08-03 22:52:00,
2013-08-03 18:57:00,71.2,66.4,29.81,SW,231,2.0,5.0,85,0.00,,,0.01,LWC V2.10 B1702,2013-08-03 22:57:00,
2013-08-03 19:02:00,71.0,66.3,29.81,WSW,257,1.0,4.0,85,0.00,,,0.01,LWC V2.10 B1702,2013-08-03 23:02:00,
2013-08-03 19:07:00,70.9,66.2,29.81,NNE,15,1.0,2.0,85,0.00,,,0.01,LWC V2.10 B1702,2013-08-03 23:07:00,
2013-08-03 19:12:00,70.8,66.1,29.81,WNW,296,0.0,4.0,85,0.00,,,0.01,LWC V2.10 B1702,2013-08-03 23:12:00,
2013-08-03 19:17:00,70.7,66.0,29.81,WSW,240,2.0,2.0,85,0.00,,,0.01,LWC V2.10 B1702,2013-08-03 23:17:00,
2013-08-03 19:22:00,70.7,66.0,29.81,WSW,246,0.0,2.0,85,0.00,,,0.01,LWC V2.10 B1702,2013-08-03 23:22:00,
2013-08-03 19:27:00,70.6,65.9,29.81,WSW,246,0.0,4.0,85,0.00,,,0.01,LWC V2.10 B1702,2013-08-03 23:27:00,
2013-08-03 19:32:00,70.5,65.8,29.82,NW,317,0.0,2.0,85,0.00,,,0.01,LWC V2.10 B1702,2013-08-03 23:32:00,
2013-08-03 19:37:00,70.4,65.7,29.82,NW,311,0.0,1.0,85,0.00,,,0.01,LWC V2.10 B1702,2013-08-03 23:37:00,
2013-08-03 19:42:00,70.2,65.8,29.82,West,263,2.0,2.0,86,0.00,,,0.01,LWC V2.10 B1702,2013-08-03 23:42:00,
2013-08-03 19:47:00,70.1,65.7,29.82,NW,309,1.0,2.0,86,0.00,,,0.01,LWC V2.10 B1702,2013-08-03 23:47:00,
2013-08-03 19:52:00,70.0,65.6,29.82,West,263,0.0,2.0,86,0.00,,,0.01,LWC V2.10 B1702,2013-08-03 23:52:00,
2013-08-03 19:57:00,69.9,65.5,29.83,WNW,300,2.0,5.0,86,0.00,,,0.01,LWC V2.10 B1702,2013-08-03 23:57:00,
2013-08-03 20:02:00,69.8,65.4,29.83,NW,315,1.0,3.0,86,0.00,,,0.01,LWC V2.10 B1702,2013-08-04 00:02:00,
2013-08-03 20:07:00,69.9,65.5,29.83,WNW,284,0.0,1.0,86,0.00,,,0.01,LWC V2.10 B1702,2013-08-04 00:07:00,
2013-08-03 20:12:00,69.9,65.5,29.84,West,271,1.0,2.0,86,0.00,,,0.01,LWC V2.10 B1702,2013-08-04 00:12:00,
2013-08-03 20:17:00,69.9,65.5,29.84,WNW,300,1.0,3.0,86,0.00,,,0.01,LWC V2.10 B1702,2013-08-04 00:17:00,
2013-08-03 20:22:00,69.9,65.5,29.83,WNW,296,0.0,1.0,86,0.00,,,0.01,LWC V2.10 B1702,2013-08-04 00:22:00,
2013-08-03 20:27:00,69.9,65.5,29.84,NW,313,1.0,5.0,86,0.00,,,0.01,LWC V2.10 B1702,2013-08-04 00:27:00,
2013-08-03 20:32:00,69.9,65.5,29.83,WNW,302,0.0,2.0,86,0.00,,,0.01,LWC V2.10 B1702,2013-08-04 00:32:00,
2013-08-03 20:37:00,69.9,65.5,29.84,NW,304,0.0,3.0,86,0.00,,,0.01,LWC V2.10 B1702,2013-08-04 00:37:00,
2013-08-03 20:42:00,69.9,65.5,29.84,SSW,213,0.0,1.0,86,0.00,,,0.01,LWC V2.10 B1702,2013-08-04 00:42:00,
2013-08-03 20:47:00,69.8,65.4,29.84,SW,233,0.0,0.0,86,0.00,,,0.01,LWC V2.10 B1702,2013-08-04 00:47:00,
2013-08-03 20:52:00,69.8,65.4,29.84,WNW,298,0.0,5.0,86,0.00,,,0.01,LWC V2.10 B1702,2013-08-04 00:52:00,
2013-08-03 20:57:00,69.8,65.4,29.84,West,271,1.0,1.0,86,0.00,,,0.01,LWC V2.10 B1702,2013-08-04 00:57:00,
2013-08-03 21:02:00,69.8,65.4,29.84,SSW,202,0.0,6.0,86,0.00,,,0.01,LWC V2.10 B1702,2013-08-04 01:02:00,
2013-08-03 21:07:00,69.7,65.3,29.84,NW,304,2.0,2.0,86,0.00,,,0.01,LWC V2.10 B1702,2013-08-04 01:07:00,
2013-08-03 21:12:00,69.8,65.1,29.85,NNW,340,0.0,1.0,85,0.00,,,0.01,LWC V2.10 B1702,2013-08-04 01:12:00,
2013-08-03 21:17:00,69.8,65.1,29.85,West,273,2.0,4.0,85,0.00,,,0.01,LWC V2.10 B1702,2013-08-04 01:17:00,
2013-08-03 21:22:00,69.7,65.0,29.85,NW,312,1.0,3.0,85,0.00,,,0.01,LWC V2.10 B1702,2013-08-04 01:22:00,
2013-08-03 21:27:00,69.9,65.2,29.85,West,270,2.0,6.0,85,0.00,,,0.01,LWC V2.10 B1702,2013-08-04 01:27:00,
2013-08-03 21:32:00,70.1,65.7,29.85,WSW,249,0.0,2.0,86,0.00,,,0.01,LWC V2.10 B1702,2013-08-04 01:32:00,
2013-08-03 21:37:00,70.2,65.8,29.85,WNW,284,2.0,6.0,86,0.00,,,0.01,LWC V2.10 B1702,2013-08-04 01:37:00,
2013-08-03 21:42:00,70.2,65.8,29.84,WSW,252,1.0,2.0,86,0.00,,,0.01,LWC V2.10 B1702,2013-08-04 01:42:00,
2013-08-03 21:47:00,70.2,65.8,29.84,West,275,0.0,2.0,86,0.00,,,0.01,LWC V2.10 B1702,2013-08-04 01:47:00,
2013-08-03 21:52:00,70.2,66.1,29.84,WSW,255,0.0,1.0,87,0.00,,,0.01,LWC V2.10 B1702,2013-08-04 01:52:00,
2013-08-03 21:57:00,70.1,66.0,29.84,SW,229,0.0,4.0,87,0.00,,,0.01,LWC V2.10 B1702,2013-08-04 01:57:00,
2013-08-03 22:02:00,70.2,66.5,29.84,WNW,294,0.0,4.0,88,0.00,,,0.01,LWC V2.10 B1702,2013-08-04 02:02:00,
2013-08-03 22:07:00,70.3,66.6,29.84,WSW,246,0.0,2.0,88,0.00,,,0.01,LWC V2.10 B1702,2013-08-04 02:07:00,
2013-08-03 22:12:00,70.3,66.6,29.84,WSW,240,2.0,2.0,88,0.00,,,0.01,LWC V2.10 B1702,2013-08-04 02:12:00,
2013-08-03 22:17:00,70.3,66.6,29.84,West,271,1.0,2.0,88,0.00,,,0.01,LWC V2.10 B1702,2013-08-04 02:17:00,
2013-08-03 22:22:00,70.2,66.5,29.84,WNW,301,0.0,2.0,88,0.00,,,0.01,LWC V2.10 B1702,2013-08-04 02:22:00,
2013-08-03 22:27:00,70.2,66.5,29.84,NW,308,0.0,3.0,88,0.00,,,0.01,LWC V2.10 B1702,2013-08-04 02:27:00,
2013-08-03 22:32:00,70.3,66.6,29.84,NW,316,1.0,2.0,88,0.00,,,0.01,LWC V2.10 B1702,2013-08-04 02:32:00,
2013-08-03 22:37:00,70.3,66.6,29.84,NNW,330,0.0,1.0,88,0.00,,,0.01,LWC V2.10 B1702,2013-08-04 02:37:00,
2013-08-03 22:42:00,70.3,66.6,29.84,North,9,1.0,1.0,88,0.00,,,0.01,LWC V2.10 B1702,2013-08-04 02:42:00,
2013-08-03 22:47:00,70.3,66.2,29.84,WNW,298,0.0,1.0,87,0.00,,,0.01,LWC V2.10 B1702,2013-08-04 02:47:00,
2013-08-03 22:52:00,70.2,66.1,29.84,West,277,0.0,1.0,87,0.00,,,0.01,LWC V2.10 B1702,2013-08-04 02:52:00,
2013-08-03 22:57:00,70.2,66.1,29.84,SSW,209,0.0,3.0,87,0.00,,,0.01,LWC V2.10 B1702,2013-08-04 02:57:00,
2013-08-03 23:02:00,70.3,66.2,29.84,NW,317,2.0,5.0,87,0.00,,,0.01,LWC V2.10 B1702,2013-08-04 03:02:00,
2013-08-03 23:07:00,70.3,66.2,29.84,West,275,0.0,3.0,87,0.00,,,0.01,LWC V2.10 B1702,2013-08-04 03:07:00,
2013-08-03 23:12:00,70.3,65.9,29.84,WSW,256,0.0,6.0,86,0.00,,,0.01,LWC V2.10 B1702,2013-08-04 03:12:00,
2013-08-03 23:17:00,70.3,65.9,29.84,West,277,1.0,2.0,86,0.00,,,0.01,LWC V2.10 B1702,2013-08-04 03:17:00,
2013-08-03 23:22:00,70.3,65.9,29.84,NW,320,2.0,3.0,86,0.00,,,0.01,LWC V2.10 B1702,2013-08-04 03:22:00,
2013-08-03 23:27:00,70.3,66.2,29.84,NW,319,0.0,1.0,87,0.00,,,0.01,LWC V2.10 B1702,2013-08-04 03:27:00,
2013-08-03 23:32:00,70.3,66.2,29.83,NW,308,0.0,2.0,87,0.00,,,0.01,LWC V2.10 B1702,2013-08-04 03:32:00,
2013-08-03 23:37:00,70.3,66.2,29.83,WNW,294,1.0,4.0,87,0.00,,,0.01,LWC V2.10 B1702,2013-08-04 03:37:00,
2013-08-03 23:42:00,70.3,66.2,29.83,West,273,0.0,0.0,87,0.00,,,0.01,LWC V2.10 B1702,2013-08-04 03:42:00,
2013-08-03 23:47:00,70.2,66.1,29.83,West,274,0.0,0.0,87,0.00,,,0.01,LWC V2.10 B1702,2013-08-04 03:47:00,
2013-08-03 23:52:00,70.2,66.1,29.83,SW,219,0.0,0.0,87,0.00,,,0.01,LWC V2.10 B1702,2013-08-04 03:52:00,
2013-08-03 23:57:00,70.2,66.1,29.83,NNW,330,0.0,1.0,87,0.00,,,0.01,LWC V2.10 B1702,2013-08-04 03:57:00,